Regional Weather Roundup
Issued by NWS Grand Forks, ND

Home | Current Version | Previous Version | Graphics & Text | Print | Product List | Glossary On
Versions: 1 2 3 4 5 6 7 8 9 10 11 12 13 14 15 16 17 18 19 20 21 22 23 24 25 26 27 28 29 30 31 32 33 34 35 36 37 38 39 40 41 42 43 44 45 46 47 48 49 50
000
ASUS43 KFGF 291110
RWRFGF
PRAIRIE TO PINES  WEATHER ROUNDUP
NATIONAL WEATHER SERVICE EASTERN NORTH DAKOTA/GRAND FORKS ND
600 AM CDT TUE JUL 29 2014

 **SATELLITE DATA USED TO AUGMENT SKY COVER AT AUTOMATED STATIONS**
 *****  WEATHER ACROSS EASTERN NORTH DAKOTA  *****

CITY           SKY/WX    TMP DP  RH WIND       PRES   REMARKS
GRAND FORKS    PTCLDY    51  50  96 CALM      30.17S
GRAND FRKS AFB CLEAR     53  53  99 W6        30.18S
GRAND FRKS NWS   N/A     37 N/A N/A MISG        N/A
DEVILS LAKE    CLEAR     54  48  82 CALM      30.19S
FARGO          CLEAR     52  49  89 W3        30.18S
WAHPETON ARPT  SUNNY     46  43  87 W5        30.19S
$$

 ***** WEATHER ACROSS CENTRAL AND WESTERN NORTH DAKOTA  *****

CITY           SKY/WX    TMP DP  RH WIND       PRES   REMARKS
BISMARCK       CLEAR     50  49  96 E3        30.24S
MINOT          CLEAR     58  54  86 SW8       30.21S
JAMESTOWN      CLEAR     51  50  96 CALM      30.21S
MINOT AFB      CLEAR     54  53  99 SW1       30.20F
GARRISON         N/A     56  54  93 CALM      30.23R
WILLISTON      CLEAR     53  50  89 N3        30.20F
DICKINSON      CLEAR     53  49  86 SW3       30.22S
HETTINGER      CLEAR     45  42  89 CALM      30.25S
$$

 *****  OTHER AIRPORT OBSERVATIONS IN OUR AREA  *****

CITY           SKY/WX    TMP DP  RH WIND       PRES   REMARKS
WALHALLA         N/A     50  50 100 CALM        N/A
GRAFTON AIRPOR FAIR      55  54  94 W6        30.17S
VALLEY CITY AR FAIR      50  50 100 NW5       30.21S
CANDO          FAIR      48  46  93 W3        30.21F
CAVALIER APRT  FAIR      52  50  93 W6        30.17S
GWINNER        SUNNY     54  54 100 W6        30.21S
SHEYENNE NWR     N/A     51  50  95 NW3       29.95S
ROLLA          FAIR      50  50 100 CALM      30.23S
 ***** THE ABOVE OBSERVATIONS ARE NON NWS ARE NOT QUALITY
       CONTROLLED AND MAY MIS-REPORT RAIN FOR SNOW...
$$

  *****  WEATHER ACROSS NORTHERN MINNESOTA  *****

CITY           SKY/WX    TMP DP  RH WIND       PRES   REMARKS
FLAG ISLAND    CLEAR     61  55  82 NW12      30.11S
WARROAD        CLEAR     55  52  88 W5        30.14S
ROSEAU         CLEAR     55  52  88 W7        30.15S
HALLOCK        CLEAR     52  50  93 CALM      30.16F
THF RVR FALLS  CLEAR     55  54  94 CALM      30.17S
BAUDETTE       CLEAR     57  55  93 W3        30.13S
WASKISH        CLEAR     61  55  82 NW7       30.13S
CROOKSTON      CLEAR     52  50  93 CALM      30.18S
$$
  *****  WEATHER ACROSS CENTRAL AND WEST MINNESOTA  *****

CITY           SKY/WX    TMP DP  RH WIND       PRES   REMARKS
FOSSTON        CLEAR     48  46  93 CALM      30.17F
BEMIDJI        CLEAR     52  50  95 NW6       30.15S
PARK RAPIDS    CLEAR     51  49  92 NW3       30.16S
ELBOW LAKE     FAIR      53  53  99 CALM      30.18S
WADENA         CLEAR     54  52  94 W3        30.16F
DETROIT LAKES  CLEAR     55  54  94 NW5       30.19S
MOORHEAD       CLEAR     54  54 100 CALM      30.19S
FERGUS FALLS   CLEAR     52  50  93 CALM      30.19S
MORRIS MN      CLEAR     50  48  93 W5        30.18S
STAPLES        CLEAR     52  52 100 W3        30.16S
$$
  *****  WEATHER ELSEWHERE ACROSS MINNESOTA  *****

CITY           SKY/WX    TMP DP  RH WIND       PRES   REMARKS
DULUTH         PTCLDY    56  52  86 NW6       30.08F
INTRNTL FALLS  CLOUDY    56  55  97 W5        30.09S
ELY            PTCLDY    55  54  94 CALM      30.07S
CLOQUET        CLEAR     54  52  94 W6        30.09F
WHEATON        CLEAR     54  52  94 W3        30.21S
BRAINERD       CLEAR     53  52  96 CALM      30.14F
HIBBING        MOCLDY    48  46  93 CALM      30.10S
ALEXANDRIA     CLEAR     56  53  90 W5        30.19S
SAINT CLOUD    CLEAR     57  52  83 NW5       30.14S
MINNEAPOLIS    PTCLDY    60  55  83 NW6       30.13R
$$

  *****  WEATHER ACROSS SOUTH DAKOTA  *****

CITY           SKY/WX    TMP DP  RH WIND       PRES   REMARKS
SIOUX FALLS    PTCLDY    51  49  92 CALM      30.21S
BROOKINGS      NOT AVBL
WATERTOWN      CLOUDY    50  49  96 CALM      30.21F
HURON          CLEAR     48  47  96 CALM      30.21S FOG
SISSETON         N/A     51  50  96 N3        30.18F
ABERDEEN       PTCLDY    43  43 100 CALM      30.22S FOG
MITCHELL       CLEAR     50  49  96 NW5       30.23R
PIERRE         CLEAR     52  50  93 E3        30.21S
MOBRIDGE       CLEAR     50  49  96 E5        30.21R
RAPID CITY     CLEAR     53  49  86 CALM      30.26S
$$

  *****  SOME WEATHER IN NEARBY STATES *****

CITY           SKY/WX    TMP DP  RH WIND       PRES   REMARKS
GLASGOW MT     MOCLDY    61  49  64 CALM      30.20R
GREAT FALLS MT PTCLDY    59  48  67 S3        30.17S
CHEYENNE WY    PTCLDY    56  51  84 W5        30.30S
SCOTTSBLUFF NE CLEAR     59  57  93 E6        30.22R
OMAHA NE       CLEAR     56  54  93 NW5       30.19R
DES MOINES IA  PTCLDY    59  54  83 NW5       30.15F
DAVENPORT IA   CLEAR     51  49  92 W6        30.11S
CHICAGO IL     PTCLDY    59  51  75 W6        30.03S
EAU CLAIRE WI  CLEAR     54  53  97 SW7       30.08S
LA CROSSE WI   CLEAR     57  54  89 CALM      30.08S
$$

  *****  SOME NATIONAL WEATHER *****

CITY           SKY/WX    TMP DP  RH WIND       PRES   REMARKS
LA GUARDIA NY  MOSUNNY   65  53  65 NW13      29.82R
RALEIGH NC     MOCLDY    66  57  72 CALM      29.94R
ATLANTA GA     CLEAR     67  61  81 NW8       29.99R
NEW ORLEANS LA MOCLDY    79  68  69 N9        30.03R
OKLAHOMA CITY  CLOUDY    72  65  78 S3        30.15S
ALBUQUERQUE NM CLOUDY    68  60  75 CALM      30.30S
SALT LAKE CITY CLOUDY    68  63  84 CALM      30.18F
LOS ANGELES CA CLEAR     68  62  81 CALM      30.02S
BOISE ID       MOCLDY    77  49  37 S8        30.07R
SEATTLE WA     CLEAR     64  50  60 CALM      30.11R
$$

*** WEATHER ACROSS MANITOBA...SASKATCHEWAN AND ONTARIO ***
                ***ONTARIO***

CITY           SKY/WX    TMP DP  RH WIND       PRES   REMARKS
GERALDTON      FOG       52  52 100 NW3       29.96R VSB 1/2
THUNDER BAY    MOCLDY    57  55  94 SW3       29.99
SIOUX LOOKOUT  MOCLDY    55  54  94 NW5       30.03S
TORONTO        MOCLDY    59  52  77 NW8       29.91R
BIG TROUT LK   CLEAR     48  46  93 NE5       30.10R
PICKLE LAKE    CLOUDY    57  54  88 NE5       30.02
DRYDEN         PTCLDY    54  52  94 W8        30.06
KENORA         MOCLDY    57  52  82 NW10      30.11S
$$
                *** MANITOBA***

CITY           SKY/WX    TMP DP  RH WIND       PRES   REMARKS
BRANDON        PTCLDY    48  46  93 W6        30.21S
DAUPHIN        CLEAR     52  50  93 W6        30.18S
ISLAND LAKE    MOCLDY    61  54  77 CALM      30.07R
PILOT MOUND      N/A     46  45  93 W2          N/A
THE PAS        PTCLDY    54  52  94 CALM      30.16R
THOMPSON       MOCLDY    48  46  93 NE3       30.10R
WINNIPEG       PTCLDY    50  50 100 W8        30.17S
LYNN LAKE      CLEAR     57  54  88 N3        30.12S
CHURCHILL      PTCLDY    45  45 100 SE6       30.18R
GILLAM         FOG       50  50 100 E6        30.14R VSB 1/4
$$
                ***SASKATCHEWAN***

CITY           SKY/WX    TMP DP  RH WIND       PRES   REMARKS
ESTEVAN        PTCLDY    55  55 100 E2        30.22S
KINDERSLEY     PTCLDY    57  54  88 SE10      30.21S
LLOYDMINSTER   CLEAR     59  55  88 S6        30.20S
PRINCE ALBERT  FOG       54  54 100 NE3       30.20S VSB 1/4
REGINA         CLEAR     55  55 100 SE3       30.22S
YORKTON        PTCLDY    57  57 100 W2        30.20F
N. BATTLEFORD    N/A     55  55 100 E7        30.23R
LA RONGE       PTCLDY    52  50  93 CALM      30.19R
SASKATOON      CLEAR     57  57 100 SE2       30.23R
SWIFT CURRENT  CLEAR     52  50  93 S7        30.23S
$$
NOTE: THESE ARE AUTOMATED STATIONS WITH LIMITED QUALITY CONTROL
      "FAIR" INDICATES FEW OR NO CLOUDS BELOW 12,000 FEET WITH NO
      SIGNIFICANT WEATHER AND/OR OBSTRUCTIONS TO VISIBILITY.
      SKY/WX - SKY CONDITION AND SIGNIFICANT WEATHER.
      TMP - AIR TEMPERATURE.    DP   - DEWPOINT TEMPERATURE.
      RH  - RELATIVE HUMIDITY.  PRES - PRESSURE.
      HX  - HEAT INDEX.         WCI  - WIND CHILL INDEX.
$


USA.gov is the U.S. government's official web portal to all federal, state and local government web resources and services.